TimeEDT,TemperatureF,Dew PointF,Humidity,Sea Level PressureIn,VisibilityMPH,Wind Direction,Wind SpeedMPH,Gust SpeedMPH,PrecipitationIn,Events,Conditions,WindDirDegrees,DateUTC
12:53 AM,77.0,73.9,90,30.04,10.0,WNW,4.6,-,N/A,,Clear,300,2013-08-24 04:53:00
1:53 AM,75.9,72.0,87,30.04,10.0,West,3.5,-,N/A,,Clear,280,2013-08-24 05:53:00
2:53 AM,75.9,72.0,87,30.05,10.0,NNW,3.5,-,N/A,,Clear,340,2013-08-24 06:53:00
3:53 AM,75.0,71.1,87,30.06,10.0,SW,3.5,-,N/A,,Clear,220,2013-08-24 07:53:00
4:53 AM,75.0,71.1,87,30.07,10.0,SW,3.5,-,N/A,,Clear,230,2013-08-24 08:53:00
5:53 AM,73.9,71.1,91,30.07,10.0,West,4.6,-,N/A,,Partly Cloudy,270,2013-08-24 09:53:00
6:53 AM,73.9,70.0,87,30.08,10.0,NW,3.5,-,N/A,,Mostly Cloudy,310,2013-08-24 10:53:00
7:53 AM,73.9,71.1,91,30.10,10.0,Calm,Calm,-,N/A,,Mostly Cloudy,0,2013-08-24 11:53:00
8:53 AM,78.1,71.1,79,30.12,10.0,Calm,Calm,-,N/A,,Mostly Cloudy,0,2013-08-24 12:53:00
9:53 AM,80.1,71.1,74,30.13,10.0,North,6.9,-,N/A,,Mostly Cloudy,360,2013-08-24 13:53:00
10:53 AM,82.0,72.0,71,30.14,10.0,NNE,5.8,-,N/A,,Mostly Cloudy,20,2013-08-24 14:53:00
11:53 AM,82.0,73.0,74,30.15,10.0,NE,12.7,-,N/A,,Overcast,40,2013-08-24 15:53:00
12:03 PM,82.4,71.6,70,30.15,10.0,ENE,11.5,-,N/A,,Overcast,60,2013-08-24 16:03:00
12:53 PM,82.9,72.0,69,30.16,10.0,NE,9.2,-,N/A,,Overcast,40,2013-08-24 16:53:00
1:53 PM,84.9,73.0,67,30.14,10.0,NNE,10.4,-,N/A,,Mostly Cloudy,30,2013-08-24 17:53:00
2:33 PM,84.2,71.6,66,30.15,10.0,NNE,11.5,-,N/A,,Mostly Cloudy,30,2013-08-24 18:33:00
2:53 PM,82.9,72.0,69,30.15,10.0,NNE,11.5,-,N/A,,Mostly Cloudy,20,2013-08-24 18:53:00
3:02 PM,82.4,71.6,70,30.15,10.0,NE,10.4,-,N/A,,Mostly Cloudy,40,2013-08-24 19:02:00
3:10 PM,84.2,71.6,66,30.15,10.0,NE,12.7,-,N/A,,Mostly Cloudy,40,2013-08-24 19:10:00
3:53 PM,84.0,72.0,67,30.14,9.0,NE,12.7,-,N/A,,Mostly Cloudy,50,2013-08-24 19:53:00
4:00 PM,84.2,71.6,66,30.14,8.0,NE,13.8,-,N/A,,Overcast,40,2013-08-24 20:00:00
4:53 PM,81.0,71.1,72,30.14,10.0,NNE,13.8,-,N/A,,Mostly Cloudy,30,2013-08-24 20:53:00
5:41 PM,80.6,71.6,74,30.14,9.0,NNE,11.5,-,N/A,,Overcast,30,2013-08-24 21:41:00
5:53 PM,80.1,71.1,74,30.14,9.0,NNE,11.5,-,N/A,,Overcast,30,2013-08-24 21:53:00
6:53 PM,79.0,71.1,77,30.14,8.0,NNE,5.8,-,N/A,,Overcast,30,2013-08-24 22:53:00
7:53 PM,77.0,71.1,82,30.15,7.0,NNE,8.1,-,N/A,,Mostly Cloudy,20,2013-08-24 23:53:00
8:53 PM,75.9,72.0,87,30.17,8.0,North,8.1,-,N/A,,Mostly Cloudy,10,2013-08-25 00:53:00
9:39 PM,77.0,71.6,83,30.18,9.0,NNE,8.1,-,N/A,,Overcast,30,2013-08-25 01:39:00
9:53 PM,75.9,72.0,87,30.19,8.0,NE,8.1,-,N/A,,Overcast,40,2013-08-25 01:53:00
10:30 PM,75.2,71.6,89,30.19,10.0,NE,9.2,-,N/A,,Overcast,50,2013-08-25 02:30:00
10:53 PM,75.0,71.1,87,30.20,10.0,NE,6.9,-,N/A,,Overcast,40,2013-08-25 02:53:00
11:53 PM,75.0,71.1,87,30.21,10.0,NE,4.6,-,N/A,,Overcast,40,2013-08-25 03:53:00